Regional Weather Roundup
Issued by NWS

Home | Current Version | Previous Version | Graphics & Text | Print | Product List | Glossary On
Versions: 1 2 3 4 5 6 7 8 9 10 11 12 13 14 15 16 17 18 19 20 21 22 23 24 25 26 27 28 29 30 31 32 33 34 35 36 37 38 39 40 41 42 43 44 45 46 47 48 49 50
485
ASUS43 KMKX 251711
RWRWI

WISCONSIN REGIONAL WEATHER ROUNDUP
NATIONAL WEATHER SERVICE MILWAUKEE/SULLIVAN WI
1200 PM CDT THU AUG 25 2016

NOTE: "FAIR" INDICATES FEW OR NO CLOUDS BELOW 12,000 FEET WITH NO
SIGNIFICANT WEATHER AND/OR OBSTRUCTIONS TO VISIBILITY.

WIZ001-002-006>008-014>016-023>028-251800-
NORTHWEST WISCONSIN

CITY           SKY/WX    TMP DP  RH WIND       PRES   REMARKS
SUPERIOR ARPT  MOSUNNY   72  55  53 W16G22    29.94S
ASHLAND        MOSUNNY   74  55  51 SW18G26   29.94F
HAYWARD        SUNNY     71  53  52 SW12G20   29.99S
SIREN          SUNNY     71  51  49 W21       30.00F
CUMBERLAND     PTSUNNY   70  54  56 W15       30.02S
RICE LAKE      PTSUNNY   71  57  60 SW13G18   30.03S
CHETEK         NOT AVBL
LADYSMITH      SUNNY     75  59  55 SW13      30.02F
EAU CLAIRE     MOSUNNY   77  59  53 SW14      30.02S
MENOMONIE      MOSUNNY   75  57  52 SW13      30.03S
NEW RICHMOND   MOSUNNY   71  56  59 W12G18    30.04S
OSCEOLA        MOSUNNY   71  55  56 W15       30.06S
$$

WIZ003>005-009-010-017-018-251800-
NORTH CENTRAL WISCONSIN

CITY           SKY/WX    TMP DP  RH WIND       PRES   REMARKS
MANITOWISH WTR NOT AVBL
ARBOR VITAE    SUNNY     74  55  52 W15G22    29.99F
WOODRUFF       SUNNY     74  55  52 W15G22    29.99F
RHINELANDER    SUNNY     75  54  47 W17       30.02R
EAGLE RIVER    SUNNY     72  49  44 W13G22    29.99S
LAND O LAKES   SUNNY     72  49  44 W14G20    30.00S
PHILLIPS       CLOUDY    72  58  60 SW13G18   30.00S
TOMAHAWK       SUNNY     73  54  51 SW9G16    30.02S
MEDFORD        MOSUNNY   72  58  60 W14       30.03S
MERRILL        SUNNY     74  57  55 W10G17    30.03R
$$

WIZ029-030-035-036-043>047-251800-
CENTRAL WISCONSIN

CITY           SKY/WX    TMP DP  RH WIND       PRES   REMARKS
WAUSAU         SUNNY     74  57  55 W9        30.02R
MOSINEE        SUNNY     73  59  60 W12       30.05S
MARSHFIELD     SUNNY     76  59  55 W10       30.04S
STEVENS POINT  SUNNY     72  57  58 W10       30.04S
WAUPACA        CLOUDY    78  57  48 W7        30.03S
WAUTOMA        CLOUDY    76  59  55 W9        30.05R
WISC RAPIDS    SUNNY     76  59  55 NW13      30.06R
CAMP DOUGLAS   MOSUNNY   75  61  60 W8        30.05S
$$

WIZ011>013-019>022-031-037>040-048>050-251800-
NORTHEAST WISCONSIN

CITY           SKY/WX    TMP DP  RH WIND       PRES   REMARKS
ANTIGO         SUNNY     73  56  55 W15       30.03S
SHAWANO        CLOUDY    75  60  60 W8        30.01S
OCONTO         NOT AVBL
STURGEON BAY   MOSUNNY   74  58  57 W10       29.99S
GREEN BAY      CLOUDY    74  63  68 W12       30.01R
MANITOWOC      CLOUDY    75  57  53 W10       30.01R
APPLETON       PTSUNNY   73  55  53 W10       30.01S
CLINTONVILLE   CLOUDY    73  55  53 W7        30.02R
OSHKOSH        CLOUDY    75  57  53 NW8       30.02S
$$

WIZ032>034-041-042-053>061-251800-
SOUTHWEST WISCONSIN

CITY           SKY/WX    TMP DP  RH WIND       PRES   REMARKS
LA CROSSE      SUNNY     80  60  50 W10       30.05F HX  81
SPARTA         SUNNY     75  60  59 W7        30.07R
VIROQUA        SUNNY     73  59  59 W5        30.09R
BOSCOBEL       CLOUDY    77  61  57 CALM      30.07S
PRAIRIE DU CHI MOSUNNY   76  55  47 SW3       30.07F
PLATTEVILLE    PTSUNNY   75  60  59 CALM      30.09S
$$

WIZ056-057-062-063-064-067-068-251800-
SOUTH CENTRAL WISCONSIN

CITY           SKY/WX    TMP DP  RH WIND       PRES   REMARKS
REEDSBURG      NOT AVBL
BARABOO/DELLS  CLOUDY    75  57  53 NW5       30.06S
LONE ROCK      CLOUDY    78  58  49 VRB3      30.07R
MINERAL POINT  MOSUNNY   77  59  53 CALM      30.09S
MADISON        PTSUNNY   78  59  51 N8        30.06R
MIDDLETON      SUNNY     78  57  49 N5        30.07S
WATERTOWN      SUNNY     75  62  62 CALM      30.05R
MONROE         MOSUNNY   75  59  57 NW6       30.08R
JANESVILLE     MOSUNNY   77  61  57 W6        30.06R
$$

WIZ051-052-058>065-066-070>072-251800-
SOUTHEAST WISCONSIN

CITY           SKY/WX    TMP DP  RH WIND       PRES   REMARKS
MILWAUKEE      MOSUNNY   79  58  48 NW7       30.03R HX  80
WAUKESHA       SUNNY     75  61  60 NW7       30.05R
MILWAUKEE/TIMM SUNNY     79  55  44 NW7       30.04R
RACINE         MOSUNNY   78  63  59 W7        30.05R HX  80
BURLINGTON     CLOUDY    76  60  58 NW6       30.05R
KENOSHA        MOSUNNY   78  63  59 W7        30.05R HX  80
FOND DU LAC    CLOUDY    75  60  59 NW8       30.04R
SHEBOYGAN      CLOUDY    77  59  53 W8        30.02R
WEST BEND      CLOUDY    75  59  57 NW9       30.04S
JUNEAU         CLOUDY    74  58  58 NW8       30.06R
$$

LSZ147-162-251800-
LAKE SUPERIOR

STATION/POSITION TIME  TEMP    WIND        PRES    WAVE
                       AIR SEA DIR/SP/G            HT/PER
                 (UTC) (F)     (DEG/KT/KT) (MB)    (FT/S)
W MID LAKE BUOY  1650   67 68  230/ 17/ 19 1011.7R   3/ 4
DEVILS ISLAND    1600   66     220/ 12/ 15 1012.8S
PORT WING        1600   69     260/ 14/ 17 1013.5S
SAXON HARBOR     1600   73     240/  8/ 13 1013.9
$$

LMZ867-665-643>646-251800-
LAKE MICHIGAN

STATION/POSITION TIME  TEMP    WIND        PRES    WAVE
                       AIR SEA DIR/SP/G            HT/PER
                 (UTC) (F)     (DEG/KT/KT) (MB)    (FT/S)
CHAMBERS ISLAND  1600   73     250/  4/  7 1014.9S
S GREEN BAY BUOY 1600   71 72  270/  4/  4 1015.0R
N MID LAKE BUOY  1650   68 70  270/ 10/ 12 1013.7S   2/ 6
NORTHPORT PIER   1600   71     300/  7/ 11 1014.6
SISTER BAY       1607   72     330/ 11/ 12   N/A
KEWAUNEE LAKESHO 1600   73     310/  6/  9 1015.0R
SHEBOYGAN LAKESH 1700   74     340/  4/  7 1015.7R
PORT WASHINGTON  1600   78     310/  8/ 10 1016.9R
ATWATER BUOY     1700   66 48  140/  2/  2   N/A
MILWAUKEE LAKESH 1610   72      70/  3/  5   N/A
S MID LAKE BUOY  1650   71 74  330/ 10/ 12 1016.0R   1/ 3
KENOSHA   LAKESH 1700   75      90/  5/  5 1016.9R
$$

TC  - TEMPERATURE IN CELSIUS
VSB - VISIBILITY IN STATUTE MILES
WCI - WIND CHILL INDEX
HX  - HEAT INDEX





USA.gov is the U.S. government's official web portal to all federal, state and local government web resources and services.